Theta_e
330 330 330 330 329 329 329 330 331 329 329 329 328 328 327 327 326 327 328 329 329 327 326 327 328 329 330 329 329 330 331 332 331 331 331 330 331 331 327 326 325 326 325 324 322 320 318 315 315 314 311 310 309 309 309 308 308 308 307 306 306 305 306 305 305 305 305 306 306 307 307 307 307 307 307 308 307 308 308 307 308 308 308 309 308
330 330 331 330 329 329 328 328 328 328 328 328 328 327 327 327 326 327 327 329 328 327 326 326 328 329 329 329 329 329 331 332 331 331 331 330 331 330 328 326 325 326 326 325 323 320 320 318 315 315 314 311 309 308 309 309 308 308 307 307 306 305 305 305 305 305 305 305 306 306 307 307 307 307 307 307 307 307 307 307 307 307 307 308 308
331 330 330 329 328 328 326 326 327 326 326 327 328 327 328 327 327 327 327 328 327 326 327 327 329 330 328 328 329 329 329 331 331 331 331 331 331 330 328 326 325 327 327 326 324 321 322 323 318 314 314 312 310 311 310 309 309 309 307 306 306 306 305 305 305 305 305 305 305 305 306 307 307 307 307 307 307 307 307 307 307 307 307 308 307
331 331 331 329 328 326 324 325 326 325 325 327 328 328 327 326 327 326 327 328 326 326 327 328 329 329 327 328 328 328 329 330 329 330 331 331 331 330 328 327 327 328 327 326 325 322 322 323 318 313 313 312 313 314 314 313 311 309 309 307 307 307 306 306 306 305 305 304 304 305 305 306 307 307 307 307 307 307 307 307 307 307 307 307 307
330 330 331 331 330 328 327 326 325 324 325 326 326 327 326 326 327 327 327 327 326 327 328 328 329 329 327 327 328 327 328 329 328 329 330 330 331 331 329 328 329 329 327 326 326 324 321 319 315 312 311 311 312 313 314 314 312 309 310 310 308 308 307 306 306 305 305 305 304 304 305 305 307 307 307 307 307 307 307 307 308 308 307 307 307
330 330 330 330 330 330 329 328 326 324 323 324 325 326 326 326 327 328 327 326 326 327 328 329 330 329 328 327 328 328 327 328 328 328 329 330 330 330 329 328 328 327 326 326 326 326 324 319 315 313 312 310 313 314 310 309 308 307 309 310 308 308 307 306 306 305 305 305 305 304 304 304 305 306 307 307 307 307 307 307 307 307 308 308 308
331 330 330 330 329 329 329 329 328 326 325 324 325 326 326 326 327 328 327 326 327 328 327 329 328 328 328 327 327 328 327 327 328 328 328 329 330 330 328 328 327 326 325 326 326 326 326 323 318 315 314 313 314 318 315 309 308 310 311 312 311 310 309 309 308 307 305 305 305 305 304 304 304 305 306 306 307 307 307 307 308 308 308 308 308
330 329 330 331 330 329 328 329 329 328 327 326 326 326 326 326 327 327 327 326 327 327 327 327 327 326 328 327 327 329 328 327 328 328 327 329 330 330 330 328 328 327 325 325 326 327 326 325 323 319 318 316 315 319 319 317 316 317 317 317 315 313 313 313 313 311 308 306 306 305 305 305 304 304 304 305 306 306 307 307 307 308 308 308 308
328 328 329 330 330 329 329 329 329 329 328 327 327 326 326 327 326 326 326 325 326 327 327 327 326 326 328 327 327 328 326 326 329 328 326 328 328 329 330 328 327 326 325 324 323 325 326 326 326 324 322 321 320 319 319 320 322 322 320 320 320 319 317 316 316 316 314 313 312 309 306 305 304 304 304 304 305 306 307 307 307 307 308 308 308
328 327 328 328 329 328 328 329 329 328 328 327 327 328 328 327 326 326 325 324 325 326 327 326 326 327 327 326 327 329 327 327 330 330 327 326 326 328 329 327 326 325 325 325 324 324 326 326 327 327 326 326 325 323 321 321 324 325 323 323 324 324 323 321 320 319 318 318 317 315 311 308 306 304 304 304 305 306 307 307 308 308 308 308 308
326 327 327 328 329 328 328 329 328 328 327 327 327 328 327 326 326 326 325 324 323 325 326 326 325 326 327 327 329 330 329 328 329 330 330 329 327 327 327 326 325 325 325 326 325 324 325 325 325 327 327 327 327 327 325 325 325 326 327 326 326 326 326 325 324 323 322 321 320 318 316 315 312 309 307 306 306 306 307 308 308 308 308 308 308
323 326 327 327 327 328 328 328 328 328 327 326 327 328 328 326 325 325 324 323 323 324 326 326 325 326 326 328 328 327 328 329 329 330 330 330 328 326 325 326 325 326 325 324 325 324 323 323 324 326 326 327 327 328 327 327 327 327 328 328 328 327 327 327 327 326 326 326 324 321 320 319 318 315 313 311 310 309 309 309 309 309 309 308 308
321 324 326 327 328 328 328 327 327 328 328 327 327 327 328 327 326 325 325 325 325 325 326 325 325 326 327 327 327 326 327 328 329 330 329 329 328 326 326 326 326 326 326 325 324 324 323 323 324 325 325 325 326 327 327 326 327 327 327 328 328 328 329 329 328 328 328 328 328 326 325 323 320 318 316 315 313 312 311 310 310 310 309 309 308
318 320 323 326 327 327 327 327 326 326 327 327 328 328 327 328 327 326 326 326 326 326 326 326 326 327 327 326 326 327 327 327 328 329 328 328 328 327 326 326 325 325 326 326 325 324 324 324 325 326 326 326 325 325 324 324 325 326 327 328 328 328 329 328 328 328 328 328 328 328 328 326 324 322 319 316 314 313 313 312 311 311 310 310 309
319 322 324 324 324 325 325 326 326 325 327 327 327 328 327 328 327 326 327 327 326 326 326 326 327 327 327 327 327 327 327 326 326 328 327 327 328 327 326 326 325 325 325 325 325 326 326 325 325 326 326 326 324 323 324 324 324 325 325 325 326 327 328 328 327 328 328 328 327 326 326 326 326 325 322 319 317 315 315 315 314 314 313 312 311
324 326 323 318 320 324 324 325 326 326 326 325 326 327 326 327 326 326 327 327 327 327 326 325 326 326 327 328 327 326 327 327 326 326 326 327 328 328 327 326 325 325 325 325 325 324 325 326 325 326 325 325 324 324 324 324 324 324 324 324 324 326 327 327 327 328 327 327 325 324 324 325 326 326 325 323 320 318 319 319 319 318 318 316 315
326 325 318 311 314 320 323 324 324 326 327 326 327 327 327 326 325 326 327 328 327 327 327 326 326 326 327 328 326 326 327 327 326 326 327 327 328 328 328 328 326 325 325 326 324 323 324 325 324 324 323 323 324 324 324 324 325 325 325 324 324 324 324 324 326 327 327 326 325 324 325 325 325 326 327 326 324 322 321 322 322 322 321 321 320
326 322 315 312 314 318 324 325 322 325 327 327 328 328 328 327 326 327 327 326 327 327 327 327 326 326 327 327 327 327 326 326 327 328 327 328 328 327 328 327 327 326 325 325 323 322 323 324 323 322 322 322 323 324 324 324 325 325 325 324 323 323 323 324 325 326 326 325 325 326 326 325 325 325 326 327 326 324 323 323 324 324 324 324 324
324 320 317 318 319 321 326 325 323 323 323 324 326 326 326 326 327 327 325 324 326 326 326 327 326 326 325 326 326 327 326 326 328 328 327 327 328 327 327 327 326 326 325 324 323 322 322 324 324 323 322 322 322 323 323 324 324 324 324 324 324 324 324 323 323 323 324 324 324 324 325 325 325 325 326 327 327 326 325 324 324 325 325 325 326
324 324 322 322 323 324 325 325 324 323 323 322 323 323 323 323 324 325 325 324 325 325 325 326 326 326 325 325 325 326 327 327 328 327 326 326 327 327 327 326 325 325 324 324 324 323 323 323 323 322 321 322 322 322 323 323 323 324 324 324 323 323 322 322 322 322 322 323 324 324 324 324 325 325 325 326 327 327 326 325 325 325 325 326 326
324 325 324 323 323 323 324 324 324 323 323 323 321 321 323 323 323 324 325 325 324 324 325 325 326 326 325 326 326 326 326 326 327 327 326 326 327 326 326 325 325 325 324 324 323 323 323 324 323 322 322 322 322 323 323 323 323 323 323 322 322 321 321 322 321 322 323 323 322 323 323 323 324 324 324 325 326 326 326 326 326 326 326 327 327
324 323 324 324 323 322 323 323 323 323 323 323 322 322 322 322 322 322 324 324 324 324 325 325 327 326 326 326 326 325 325 325 326 326 325 325 326 326 325 323 323 323 323 322 322 321 321 322 321 321 321 321 322 322 322 322 322 322 321 322 322 322 323 323 322 323 323 321 319 319 319 319 319 319 320 322 323 324 325 326 326 326 327 327 327
322 321 321 323 323 323 322 322 322 323 323 323 323 322 321 320 320 320 322 322 322 324 325 326 326 325 325 325 324 324 325 325 325 325 324 324 325 325 324 322 321 322 322 321 320 320 320 319 318 319 320 321 321 322 322 321 321 321 321 322 321 322 323 323 322 322 321 320 319 318 317 316 315 315 315 316 317 319 322 324 325 325 326 326 326
318 316 316 319 320 321 321 320 321 323 322 321 321 319 319 318 318 317 318 318 320 323 325 325 324 323 323 323 323 324 325 324 324 324 323 323 324 324 323 321 320 320 320 320 319 320 320 318 317 317 319 321 321 321 321 321 321 320 320 320 320 320 321 321 321 321 320 319 319 317 316 314 313 312 313 313 314 314 315 317 318 319 319 319 321
317 314 316 318 319 319 318 315 316 318 319 319 319 317 317 317 315 313 313 314 315 318 322 323 322 320 320 320 321 322 322 322 323 323 323 323 323 323 322 321 319 319 318 318 318 318 319 318 317 317 319 321 320 320 320 320 320 320 320 320 319 318 318 317 317 315 314 313 312 310 308 307 307 307 308 309 311 312 312 311 311 311 310 309 311
315 313 315 315 315 315 313 309 309 311 315 318 319 318 317 315 311 308 308 308 309 310 315 318 318 317 317 317 317 318 318 319 321 323 323 322 321 322 321 320 319 318 317 316 316 316 316 317 317 318 318 319 318 319 319 316 315 314 314 313 311 310 309 308 308 307 306 305 305 304 304 303 303 303 303 304 306 309 310 311 311 310 308 307 307
313 311 311 309 307 308 307 306 307 307 311 315 316 315 313 310 308 307 307 308 306 306 309 313 315 315 315 314 314 315 316 317 319 321 321 321 320 319 320 320 318 317 315 314 314 314 315 316 316 316 315 313 312 313 312 308 306 306 306 306 306 306 306 306 306 306 307 307 307 307 307 307 306 305 305 304 304 304 305 307 309 310 310 309 308
312 309 308 306 306 306 305 306 306 307 310 311 310 310 307 306 307 308 308 308 307 306 306 309 312 315 316 315 313 313 314 316 318 320 319 319 319 319 318 317 317 316 314 313 313 313 313 314 314 314 313 310 307 307 306 305 305 306 307 308 308 308 309 309 309 310 310 310 310 310 310 310 310 309 309 308 307 306 305 304 304 306 307 308 308
310 308 307 306 307 306 305 305 306 308 311 309 307 306 305 305 306 305 305 306 305 305 305 307 310 313 315 314 312 311 311 311 315 318 318 318 318 318 318 317 317 317 315 313 312 311 310 311 311 312 310 308 306 305 305 307 308 309 309 309 309 310 310 310 310 310 311 311 311 310 310 310 310 310 310 310 309 309 308 307 306 305 305 305 306
309 307 306 307 307 305 305 304 305 308 310 308 306 305 304 305 304 305 305 305 305 306 306 306 308 310 311 311 311 312 310 308 310 314 314 315 315 315 316 317 317 317 316 314 313 311 309 308 308 309 308 307 306 306 307 308 309 309 310 310 310 311 311 311 311 311 311 311 311 310 310 310 309 309 309 308 309 308 308 308 308 308 307 307 306
308 305 305 306 305 304 304 304 305 306 307 306 305 305 305 306 306 307 307 307 308 309 309 309 309 309 309 309 311 314 312 310 310 312 313 313 313 313 314 316 317 317 316 315 313 311 309 308 307 307 307 307 307 307 308 309 310 310 311 310 310 311 311 311 311 311 310 310 310 309 309 310 309 309 309 308 308 307 307 307 307 307 307 307 307
308 305 305 305 304 304 305 305 305 305 305 306 306 307 308 308 308 309 310 311 311 310 312 313 313 312 310 309 310 313 314 313 312 312 313 313 313 313 314 314 316 317 317 316 313 310 309 308 307 307 307 308 308 309 310 310 311 310 310 309 309 309 309 310 310 310 310 309 309 308 307 307 308 308 309 309 309 309 308 308 307 307 307 306 306
308 305 306 306 305 305 306 306 307 307 308 308 308 308 309 309 309 310 311 313 311 310 312 313 312 312 312 311 310 310 312 313 314 314 314 314 313 314 314 314 315 316 316 316 313 310 308 307 308 308 308 308 309 309 309 310 311 309 308 308 309 308 307 308 309 309 309 310 309 308 306 305 305 304 305 306 307 308 309 308 308 308 307 307 307
311 310 311 310 308 307 307 308 308 309 309 309 309 309 309 309 309 309 311 313 311 310 311 312 311 310 311 310 310 309 310 313 315 315 315 315 314 314 315 315 315 315 315 315 314 312 310 309 309 309 310 310 309 309 310 310 310 310 309 309 310 308 308 308 309 309 310 310 309 308 306 304 303 303 303 303 304 304 305 306 307 307 306 306 306
312 316 316 313 312 312 311 310 309 309 309 309 309 309 309 309 309 309 309 310 310 309 309 312 313 312 311 310 309 309 309 311 314 314 315 315 315 315 315 315 315 315 315 315 314 313 313 311 310 310 311 312 310 310 310 310 310 311 310 310 310 309 309 309 309 310 310 309 308 307 306 305 303 302 302 302 302 302 303 303 304 304 304 305 305
314 318 317 315 316 316 315 315 312 310 310 309 309 309 309 309 309 309 310 311 312 312 312 314 316 316 315 314 313 312 310 309 311 313 314 315 316 315 315 316 316 315 315 315 315 314 314 313 312 312 312 312 311 310 311 310 311 311 311 310 311 310 310 310 310 310 310 309 307 307 306 305 303 302 301 301 301 301 302 301 302 302 302 302 303
316 318 317 315 316 317 317 318 316 314 312 310 309 309 309 309 310 312 313 315 316 316 316 317 317 317 317 317 318 316 314 312 313 315 315 315 315 315 315 315 315 315 315 315 315 315 315 314 314 313 313 312 312 312 312 311 311 311 311 311 311 311 311 311 310 310 309 308 307 307 307 306 304 302 301 301 301 301 301 301 301 301 301 301 301
318 319 319 316 317 317 316 317 317 317 316 315 313 313 313 312 313 315 316 317 317 316 317 317 317 317 317 318 319 319 317 316 315 316 315 314 315 314 314 315 314 314 315 315 315 315 315 315 315 314 314 313 313 313 312 311 312 312 311 311 311 311 311 310 310 309 308 307 307 307 307 306 305 303 301 301 300 301 301 301 301 301 301 301 301
318 319 319 317 317 317 317 317 317 317 318 318 318 318 318 318 318 318 318 319 318 317 317 317 317 317 316 316 317 318 318 317 316 315 315 315 315 314 314 314 313 314 314 315 315 315 315 315 315 315 314 313 313 313 312 312 312 312 312 311 311 311 310 309 309 308 308 307 306 306 306 306 304 303 301 301 301 301 301 302 302 301 301 301 301
319 319 319 318 317 316 317 318 317 317 318 318 319 319 320 320 320 319 320 320 319 319 318 319 319 319 318 318 318 318 318 317 316 316 316 316 315 314 314 314 314 315 315 315 315 315 315 315 315 315 314 314 313 313 313 312 312 312 311 311 311 310 308 308 308 308 307 307 306 305 305 305 303 302 301 301 301 301 302 302 302 301 301 301 301
319 319 319 319 318 317 317 317 318 318 318 318 319 319 319 319 319 320 321 321 321 320 320 320 320 319 319 319 319 318 318 318 317 317 317 317 316 315 315 315 315 315 315 315 314 314 315 315 315 315 314 314 314 313 313 313 312 312 311 311 310 309 308 308 308 307 307 307 306 305 304 303 302 301 301 301 301 302 302 302 302 302 301 301 301
319 319 319 319 318 318 318 318 318 319 318 318 319 318 319 320 320 321 322 321 320 319 318 318 317 316 318 320 318 317 318 319 318 318 318 317 317 316 316 316 316 315 315 315 314 314 314 315 315 315 314 314 314 313 313 313 312 312 311 310 310 309 308 308 308 307 307 306 305 304 303 302 301 301 301 301 301 302 302 303 303 302 302 301 301
319 319 319 319 318 318 319 319 319 320 319 319 318 317 317 318 319 320 320 320 319 318 317 317 317 316 317 319 317 316 318 320 319 318 317 317 317 317 317 316 316 316 316 315 315 315 314 314 314 314 314 314 314 313 313 312 312 311 311 310 310 309 308 307 307 307 306 305 304 302 301 301 301 301 301 301 302 302 303 303 303 302 302 301 301
321 320 319 319 319 318 319 319 319 320 320 320 319 317 317 316 316 318 320 320 319 318 317 316 317 316 316 316 316 316 318 319 319 318 317 317 317 317 317 317 317 316 316 316 316 315 314 314 314 314 314 313 313 313 312 312 312 311 310 310 309 308 307 306 306 306 306 304 302 301 301 301 301 302 302 302 303 303 302 302 302 302 302 302 302
321 320 320 320 320 319 318 318 319 320 320 320 319 318 317 316 315 316 318 319 318 317 317 316 316 317 316 316 317 316 316 318 318 316 315 316 317 317 317 317 317 316 316 316 316 315 314 313 313 313 313 313 312 312 312 312 311 310 310 309 309 308 307 306 306 305 305 303 301 301 301 301 301 302 303 303 303 303 302 302 302 302 302 302 301
320 319 319 319 319 318 318 317 319 320 320 319 318 317 317 316 315 316 317 318 317 317 317 316 316 316 317 317 317 315 315 317 316 312 311 312 315 317 318 317 316 316 316 315 315 315 314 313 313 312 313 312 312 311 311 311 310 309 309 308 308 307 306 305 305 304 303 301 300 301 301 301 301 302 302 302 302 302 302 302 301 301 301 301 300
318 317 318 317 317 317 317 318 319 319 318 318 317 317 317 316 316 317 317 317 317 316 316 315 316 316 316 316 316 315 315 316 315 312 309 309 311 313 314 314 314 314 315 315 314 314 314 313 312 312 312 311 310 310 310 309 309 308 308 307 306 305 304 304 303 302 301 300 300 300 301 301 301 301 301 301 301 301 301 301 300 300 300 300 300
316 315 316 315 314 314 315 317 319 319 318 317 317 317 318 318 318 317 317 317 316 315 315 315 315 316 315 315 315 315 315 315 314 312 309 308 309 308 309 311 310 309 312 314 314 313 313 312 312 311 310 310 309 309 309 308 308 307 306 305 304 304 303 302 301 300 300 299 300 300 301 301 301 301 301 301 301 301 301 300 300 299 299 300 300
317 316 316 315 314 313 312 313 316 318 318 317 317 318 318 317 317 317 317 317 315 315 315 315 314 314 315 315 314 314 313 314 313 312 310 309 308 305 306 309 308 307 310 313 313 313 312 312 311 310 309 309 308 308 307 307 306 305 305 304 303 302 301 300 299 299 299 299 299 300 300 300 300 301 301 301 300 300 299 299 299 299 299 299 299
317 317 318 318 317 316 315 314 315 316 316 316 316 316 316 316 317 317 317 316 314 314 315 314 314 314 313 313 313 313 313 313 312 311 309 308 308 306 307 309 308 307 308 310 311 311 311 310 310 309 308 308 307 307 306 306 305 304 303 302 301 300 300 299 299 299 299 298 299 299 299 299 299 299 299 299 299 298 298 298 298 298 299 299 299
315 316 317 317 317 317 317 316 314 314 315 315 314 314 314 316 317 317 315 314 314 315 314 313 313 313 309 307 309 310 310 309 307 306 305 306 308 309 309 309 308 307 307 308 308 308 308 308 308 307 307 307 306 306 305 304 302 301 301 300 299 299 299 299 299 298 298 298 298 298 298 298 298 298 298 297 298 297 297 297 297 298 298 298 298
Wind_Speed
12 11 10 9 9 9 8 7 7 8 9 10 10 9 9 9 8 8 8 7 6 6 8 9 7 8 9 9 9 9 10 11 11 12 11 10 10 9 7 6 5 3 3 4 4 4 3 4 4 1 5 7 8 7 6 5 3 3 1 1 1 2 3 3 4 4 4 5 5 6 6 7 7 7 8 8 9 9 9 9 10 10 10 11 11
12 11 10 8 9 8 8 8 8 8 9 10 10 11 10 10 9 9 9 7 6 6 7 9 8 6 7 8 9 11 12 11 10 11 11 10 9 8 6 5 5 3 3 3 4 3 2 3 4 2 2 5 8 8 7 6 5 4 3 2 1 1 1 2 3 3 3 3 4 4 4 5 6 6 6 7 8 8 9 9 9 9 9 10 10
12 12 11 9 9 9 9 9 9 8 8 10 11 12 12 12 10 9 8 7 7 6 6 8 9 8 8 9 11 12 13 13 11 11 11 9 8 7 5 4 4 3 2 3 3 2 1 1 4 3 1 2 6 8 7 6 5 4 4 3 2 1 1 1 2 2 2 2 2 3 3 3 4 5 5 6 7 7 8 8 8 8 8 9 9
12 12 11 10 9 10 11 9 9 9 8 9 11 12 13 12 9 8 8 6 6 6 5 6 9 10 9 10 10 11 12 12 11 11 11 9 8 7 6 4 4 2 2 2 2 2 1 1 3 4 3 2 3 6 6 5 5 4 3 2 2 1 1 1 1 2 2 2 2 2 2 2 2 3 4 5 6 6 6 7 7 7 8 8 8
12 13 11 10 8 10 11 10 9 9 9 10 11 12 12 11 9 9 8 6 5 6 6 6 8 8 8 9 8 8 10 10 9 10 9 7 6 5 6 5 3 2 1 2 2 2 1 0 2 4 3 3 0 4 5 4 4 3 2 1 1 1 1 1 0 1 2 2 2 3 3 3 2 2 2 3 4 4 5 6 6 7 7 7 7
10 11 11 10 8 9 10 11 10 9 10 10 11 11 10 11 10 9 8 6 6 7 8 7 7 7 7 8 7 6 9 10 8 8 7 5 5 4 5 6 4 3 1 0 1 1 1 1 1 2 2 2 1 3 4 3 3 2 0 1 1 1 1 1 1 1 2 3 3 3 3 3 2 1 1 1 2 3 4 4 5 6 6 6 7
6 7 9 9 8 8 9 10 9 9 11 10 10 10 10 11 10 8 7 6 5 6 7 6 6 6 6 7 7 7 6 7 7 7 7 5 4 5 6 6 4 4 3 2 1 1 2 2 2 2 3 3 2 3 3 3 3 2 3 3 3 2 2 1 1 1 1 2 3 4 4 3 3 2 1 1 1 1 2 3 4 4 5 6 6
4 5 7 7 7 8 8 8 8 9 9 9 9 9 9 9 8 6 5 5 5 5 5 6 6 6 5 6 7 8 5 2 3 3 6 6 5 6 6 5 4 4 3 2 2 1 2 3 3 2 3 3 3 4 3 5 6 6 6 5 5 5 4 4 3 2 1 1 1 1 3 3 3 3 2 1 1 0 0 1 2 3 4 5 5
2 2 4 5 6 6 7 7 8 8 7 8 8 9 8 7 6 5 5 5 5 5 5 6 6 5 4 5 5 5 3 3 6 7 7 8 5 5 5 3 3 3 3 4 4 2 0 1 2 2 2 3 4 4 5 6 6 7 7 7 7 8 8 7 6 4 3 3 3 2 1 2 3 3 3 2 2 1 1 1 2 2 3 4 5
2 2 2 3 4 5 6 7 7 7 7 7 7 7 7 6 5 5 5 5 5 5 5 6 6 5 4 4 3 4 4 2 2 4 5 7 4 3 4 3 2 3 3 5 6 4 2 1 1 1 2 3 4 4 6 7 6 7 7 6 5 6 8 9 8 7 6 5 4 4 4 3 2 2 3 3 2 2 2 2 3 3 2 3 3
3 3 3 2 2 3 4 5 6 6 5 5 5 5 5 5 5 5 4 4 5 5 5 5 6 5 5 4 3 4 5 3 2 1 1 4 4 4 4 3 3 3 4 6 6 4 3 2 1 1 1 3 3 3 4 5 4 3 3 3 3 3 4 5 6 7 7 8 7 7 6 6 5 4 3 3 3 3 3 3 4 4 3 3 3
2 2 3 2 1 2 2 4 4 4 4 5 5 4 4 4 4 4 4 3 4 5 6 5 5 5 5 4 3 4 5 3 4 3 1 2 3 5 5 5 4 4 3 4 4 4 4 4 3 3 2 2 2 2 3 3 2 1 0 0 0 1 1 1 2 3 5 6 8 8 8 8 7 7 6 5 5 4 4 4 5 5 4 4 4
4 2 2 2 1 3 3 2 2 3 3 4 5 3 3 3 3 3 3 4 4 5 5 5 5 4 3 4 6 5 4 3 3 3 1 1 3 6 7 7 6 5 6 4 2 4 5 4 4 5 4 4 3 3 2 1 1 1 1 1 1 2 2 2 3 3 3 4 5 6 7 8 8 8 8 7 6 5 5 6 5 5 5 5 5
5 3 2 2 2 3 3 3 3 2 2 3 4 3 3 3 3 3 4 5 5 5 4 2 2 3 2 4 6 6 4 3 2 1 1 1 3 7 9 7 6 7 7 5 3 4 5 5 5 5 5 4 3 2 2 3 2 1 2 1 1 2 3 3 4 5 4 3 3 3 4 6 7 8 8 6 5 5 5 6 6 5 5 5 5
6 5 3 2 2 2 2 3 3 3 3 2 2 2 3 4 4 4 5 6 5 4 2 2 2 3 4 3 3 4 3 2 2 2 3 3 4 7 10 8 7 7 6 6 6 5 7 7 6 5 4 2 2 4 5 5 5 5 4 3 2 3 4 4 4 5 4 2 3 4 5 6 6 6 6 6 5 5 5 5 5 5 5 5 6
7 4 2 2 3 2 1 2 4 4 3 4 3 3 3 3 3 4 5 5 5 4 3 3 4 4 5 3 3 3 2 2 3 3 4 5 5 7 10 10 8 6 5 7 7 4 5 5 4 3 2 1 3 5 5 6 7 7 6 5 4 4 3 4 4 5 4 2 4 5 6 6 6 5 6 6 6 6 5 5 5 5 5 5 6
8 4 2 3 3 3 3 2 3 4 5 6 5 4 5 4 3 3 4 4 4 4 3 3 5 5 5 3 2 2 1 1 3 3 4 5 5 6 10 10 8 6 5 6 5 4 4 3 2 3 2 2 5 7 7 7 8 7 5 5 4 3 3 3 3 3 3 3 3 4 4 4 4 6 6 6 6 5 5 5 4 5 5 5 6
5 4 6 7 5 6 6 3 3 5 5 5 6 6 4 4 5 5 4 3 3 2 3 2 3 5 6 5 2 3 4 4 4 4 5 6 6 6 9 10 9 7 6 6 5 4 4 4 5 5 4 4 5 6 5 5 6 6 5 4 4 3 3 2 2 2 2 2 3 4 4 4 5 6 7 7 8 6 6 6 6 5 5 5 6
3 3 6 8 8 10 9 5 5 6 5 4 7 8 5 4 5 5 5 5 3 3 5 3 2 3 4 5 3 2 5 4 4 4 5 7 7 6 9 11 11 10 9 8 8 7 7 8 9 8 7 6 5 4 4 4 5 4 4 3 2 2 1 0 0 1 2 2 2 3 3 4 6 7 7 8 8 8 8 8 7 7 6 6 6
5 6 5 6 8 9 10 9 7 5 5 4 5 7 6 5 6 6 5 5 4 4 6 5 4 4 3 3 3 2 3 3 3 4 5 9 10 9 12 14 13 12 12 11 11 11 10 11 10 9 9 8 6 5 4 4 4 3 3 2 2 1 1 1 2 3 4 4 4 2 1 3 5 6 8 8 9 9 10 11 10 9 9 9 9
7 7 6 6 5 6 9 11 9 6 5 4 4 6 7 6 7 8 7 7 6 5 6 6 5 5 5 4 4 3 3 3 4 5 5 9 11 12 16 17 17 16 15 14 13 12 12 12 10 9 8 8 6 6 6 5 5 4 4 4 3 2 2 2 3 5 6 7 7 7 5 3 2 2 4 7 8 9 10 12 11 12 11 11 12
8 9 9 8 5 5 7 9 10 9 7 6 6 6 6 6 7 7 8 9 9 8 8 8 7 8 8 7 5 4 4 3 4 6 6 9 11 14 16 17 20 19 16 15 14 12 11 10 10 9 8 8 8 7 6 6 6 6 6 6 5 4 3 4 5 7 9 8 8 8 8 7 6 6 5 5 5 6 8 11 12 13 13 12 14
7 8 10 12 9 6 6 8 11 11 9 9 8 7 7 7 8 8 8 8 10 11 11 11 11 11 11 11 11 10 8 8 7 7 10 14 16 17 17 16 18 17 17 16 14 12 11 10 10 10 10 10 10 10 8 8 8 8 9 8 8 8 7 7 7 7 6 6 5 5 5 6 6 6 6 6 6 6 4 5 8 10 11 11 13
4 5 8 10 10 8 7 9 12 12 12 11 9 8 8 9 8 8 8 9 11 12 14 16 15 14 13 13 13 13 13 11 10 11 13 14 15 17 18 17 17 17 17 16 12 13 14 13 12 9 11 12 11 11 10 9 9 10 10 9 9 10 9 8 7 5 5 4 4 4 5 5 5 5 4 4 5 5 5 4 3 4 6 7 8
3 4 6 8 8 8 7 9 10 11 14 13 10 8 9 10 9 8 8 9 11 11 13 16 16 15 13 12 13 12 12 11 11 12 14 14 14 15 16 17 19 19 18 16 14 15 15 13 10 7 9 11 10 10 10 9 10 10 9 9 8 8 7 7 6 5 5 4 5 5 6 7 6 6 5 4 3 3 3 3 3 3 4 6 7
5 5 7 7 7 8 8 8 9 9 13 15 13 10 9 10 9 9 10 10 10 10 11 15 17 16 13 13 15 13 11 11 9 10 13 15 15 15 15 16 18 19 17 16 15 14 12 9 5 2 7 10 9 9 9 9 9 8 8 7 7 7 7 6 6 6 6 5 6 6 6 7 7 6 6 5 4 4 4 3 4 3 3 3 4
7 7 7 6 6 8 7 8 8 9 11 13 13 11 10 11 12 13 13 13 12 11 13 15 18 18 14 12 14 15 14 13 13 14 13 13 12 10 10 14 17 18 17 14 13 12 11 8 4 1 5 8 8 7 8 9 8 7 7 8 8 8 8 8 7 7 7 7 8 8 8 8 8 8 7 7 6 5 5 5 5 6 6 5 4
9 8 7 5 6 6 6 6 7 8 9 8 9 10 10 11 12 12 13 12 12 12 13 16 17 18 15 12 13 14 13 12 14 17 15 11 8 5 6 10 14 17 19 17 14 13 10 8 7 3 5 6 7 7 8 9 8 6 8 10 9 9 9 8 8 8 8 9 9 9 9 9 9 9 8 8 7 7 6 6 6 7 8 8 8
9 8 7 6 6 5 5 6 7 7 8 7 8 9 9 10 11 11 11 11 12 12 12 13 15 15 14 12 12 13 12 11 14 15 14 11 8 5 9 8 8 11 18 20 17 14 10 8 7 4 3 6 7 7 7 8 8 8 10 10 8 9 10 9 8 9 9 10 10 10 10 10 10 9 9 8 8 8 8 8 8 8 8 9 10
9 9 8 7 6 5 5 6 8 9 9 9 9 10 10 11 12 13 13 12 13 13 13 12 13 14 14 14 15 15 13 12 14 14 14 12 8 5 7 8 8 9 17 20 16 13 12 9 7 5 4 5 6 6 6 7 8 8 8 7 8 9 9 8 8 9 10 11 12 12 11 11 11 11 10 10 9 9 9 8 9 9 10 10 10
9 9 8 7 6 6 7 8 9 10 10 11 11 12 12 12 12 13 13 12 13 13 13 13 12 11 12 13 15 15 13 12 14 14 14 13 10 7 5 8 12 12 14 19 16 12 10 9 9 7 5 4 2 3 4 6 8 7 7 9 11 10 7 8 9 10 11 12 13 13 13 12 12 12 11 11 11 10 10 10 10 10 10 11 11
9 8 8 8 7 8 8 9 9 10 11 11 12 12 11 11 11 11 11 9 9 10 11 10 10 9 9 10 11 12 12 13 13 12 12 12 12 10 7 7 12 13 8 11 14 14 8 7 8 7 6 4 4 5 6 8 8 7 8 12 14 11 9 10 13 13 14 16 17 17 16 14 14 13 13 13 12 12 12 12 12 12 12 12 12
9 9 9 8 8 9 9 10 10 10 10 10 10 9 8 8 8 8 9 6 5 7 8 6 6 7 7 6 6 8 10 12 12 10 9 9 9 11 9 8 12 12 7 4 8 9 8 8 8 5 7 7 3 1 5 9 9 7 7 11 14 13 13 15 15 16 18 20 22 21 19 16 15 15 14 14 14 14 14 14 14 14 13 13 14
10 9 9 9 9 9 10 10 10 9 9 8 8 6 6 5 4 5 6 4 2 3 3 3 2 3 3 2 3 5 6 9 11 8 7 8 8 9 10 10 11 11 9 5 5 7 8 8 7 5 8 7 5 2 4 8 11 7 2 8 11 10 13 16 15 16 19 22 25 24 21 18 17 17 17 16 16 16 15 15 15 15 15 15 15
11 9 8 9 9 9 9 9 9 9 8 8 6 5 4 3 2 2 2 1 1 1 1 3 2 3 2 2 1 1 3 6 8 9 9 10 8 4 5 6 6 8 10 8 6 8 8 6 6 7 5 5 5 1 6 8 11 7 2 4 8 7 9 13 15 17 19 23 26 25 23 20 19 17 15 15 16 16 16 16 16 16 15 15 15
11 10 9 9 9 8 8 8 8 8 8 8 6 5 4 4 4 4 5 4 3 3 0 2 2 5 4 3 4 2 2 4 5 6 7 8 6 2 3 4 3 6 10 9 6 5 5 6 7 6 3 5 5 1 2 4 7 6 5 4 4 5 4 7 12 17 20 23 24 24 25 25 23 19 16 16 16 15 15 16 16 15 15 15 16
11 10 10 10 9 9 9 8 8 8 8 8 7 6 6 6 6 6 6 5 4 3 3 3 5 6 3 2 3 3 2 3 4 5 6 7 7 6 6 7 6 6 8 9 6 3 4 5 3 2 4 5 2 1 2 3 2 1 3 3 3 4 5 6 11 16 20 22 22 23 27 28 27 24 23 22 20 18 17 16 14 14 14 14 15
12 11 11 10 10 10 9 9 9 8 8 7 6 6 7 7 7 8 7 6 6 5 5 5 6 7 6 3 3 4 3 2 5 7 6 6 8 8 6 7 8 5 6 7 6 4 3 2 1 1 3 3 2 1 2 6 3 2 3 5 7 10 12 12 15 16 17 18 19 22 26 28 28 27 27 27 26 23 21 19 17 16 15 15 15
11 12 12 11 11 11 10 10 10 9 8 7 6 7 9 8 8 9 9 9 9 7 7 7 7 9 9 6 8 9 7 5 5 7 7 5 6 8 8 8 7 4 3 3 5 6 5 2 1 0 1 2 3 3 3 5 2 4 10 11 11 14 14 15 17 16 14 14 15 18 22 25 27 28 28 29 27 25 23 22 22 23 21 19 17
11 12 12 12 12 13 13 11 10 10 11 11 10 11 13 12 11 11 11 12 11 10 9 8 8 9 9 8 9 10 9 9 9 8 8 7 6 8 9 11 10 8 7 5 6 7 5 2 2 3 2 2 4 4 4 6 7 9 13 14 16 17 16 17 18 15 14 16 17 18 22 25 27 29 30 29 26 23 23 23 25 26 25 23 21
14 15 14 14 14 15 15 13 13 15 17 17 17 17 16 14 13 13 13 15 15 13 11 10 11 11 10 9 9 10 10 11 10 9 9 8 8 9 10 11 11 10 8 5 6 5 4 2 3 4 3 3 5 6 7 8 9 11 13 15 17 17 17 19 18 15 17 21 21 21 25 28 30 31 30 27 23 21 21 23 25 26 26 26 26
20 19 18 18 17 18 18 17 18 20 21 21 21 19 16 14 14 15 16 17 17 14 13 12 13 14 14 13 13 12 11 10 10 10 10 10 10 11 11 11 10 9 8 7 7 7 7 5 3 5 5 4 4 5 7 10 10 11 13 15 17 18 20 22 21 21 22 23 24 29 32 31 29 28 27 24 21 18 19 20 22 25 27 28 28
20 20 20 20 20 21 21 21 22 21 20 20 20 19 18 18 18 18 20 20 19 16 15 15 16 16 15 15 15 14 12 10 10 11 12 12 12 12 11 10 10 8 8 8 8 8 9 8 5 4 6 7 8 7 8 12 13 14 15 16 18 20 21 23 26 28 27 27 30 33 33 29 26 25 25 22 17 14 16 19 21 24 26 28 28
18 20 22 22 22 22 22 23 22 21 20 20 18 18 19 20 20 21 22 23 21 19 18 19 18 16 15 16 16 15 13 10 10 11 13 12 12 12 11 10 10 9 9 10 10 9 10 11 10 9 9 10 12 12 13 15 16 17 18 19 19 21 23 24 27 30 31 32 31 30 29 27 24 24 23 21 17 16 17 20 21 22 24 25 27
13 16 19 22 23 24 24 23 22 21 22 21 21 20 20 20 21 21 23 23 22 20 19 18 17 16 16 16 15 14 12 10 10 11 12 12 11 11 10 10 10 10 11 11 12 11 11 12 12 12 13 13 14 16 17 17 17 18 19 21 22 24 26 27 29 32 33 31 26 25 27 27 24 24 24 23 21 20 20 19 19 21 22 25 28
9 10 13 17 19 22 23 22 22 23 24 23 23 23 23 22 22 21 22 22 20 17 15 14 14 15 15 14 13 12 11 10 10 10 9 10 11 11 10 10 9 10 11 12 12 13 13 13 13 14 14 14 15 17 17 17 18 20 21 22 24 25 27 29 30 32 30 25 22 23 27 25 22 22 23 24 24 23 22 21 21 21 23 25 26
8 9 10 12 15 18 20 21 22 25 26 25 24 24 24 24 23 21 21 19 16 13 11 10 10 11 11 11 11 10 9 9 10 10 8 7 8 8 8 9 10 10 11 12 12 12 12 12 13 14 14 14 15 16 17 18 20 21 22 23 24 26 28 29 30 29 26 22 19 20 24 23 21 22 24 24 24 24 23 22 23 22 22 22 22
7 8 9 10 11 13 15 18 20 23 26 25 24 23 23 23 23 23 20 15 11 10 10 10 11 11 9 9 8 7 8 10 10 9 8 6 6 7 8 10 11 11 10 11 11 11 12 12 13 14 14 15 16 17 18 19 20 21 22 23 25 27 28 28 28 26 23 20 17 18 22 23 21 21 23 22 21 22 23 23 24 23 21 20 20
6 7 8 9 10 11 13 15 18 22 25 25 23 22 21 21 22 21 17 12 10 9 9 11 13 13 13 13 12 12 12 12 10 8 8 8 8 9 9 10 11 11 10 11 12 13 14 14 14 15 16 17 18 18 19 20 21 23 25 25 25 25 24 24 24 21 20 19 17 17 20 22 20 19 21 23 24 25 25 24 22 20 19 19 20
7 9 9 9 10 11 13 15 18 21 22 22 20 18 18 19 19 17 15 13 11 10 11 12 15 16 15 16 17 17 15 13 11 10 9 9 10 9 8 9 10 9 8 9 11 12 13 14 16 17 17 18 18 19 20 21 23 23 22 22 22 22 22 23 22 18 17 17 16 16 19 21 22 23 26 28 28 27 24 21 19 17 17 19 20
10 10 11 11 12 13 14 15 17 18 18 18 16 14 16 18 17 16 16 13 12 14 15 15 17 16 15 17 18 17 15 12 10 10 9 9 10 9 7 7 7 8 8 8 10 11 12 14 16 17 18 19 20 20 20 20 18 18 17 18 20 21 22 21 19 17 17 16 15 18 21 23 25 26 27 28 30 31 28 24 22 20 19 20 22
Wind_Direction
210 213 217 222 230 224 230 240 232 232 232 228 234 244 244 238 236 237 240 236 227 227 244 252 233 221 233 227 222 216 214 227 226 226 232 229 236 243 251 267 283 319 340 341 354 355 342 329 324 278 200 199 198 202 201 202 201 206 206 176 93 87 96 92 90 82 82 81 78 77 74 71 67 64 60 60 59 58 60 62 61 58 55 52 47
210 214 220 228 224 219 231 243 241 230 228 231 235 242 244 243 238 236 242 238 234 246 254 243 216 204 236 236 224 219 215 221 226 226 227 224 225 232 238 254 277 309 353 3 2 360 353 321 325 333 213 200 199 206 209 210 210 217 229 227 216 106 110 110 115 110 102 97 90 85 80 78 72 68 62 58 58 57 56 55 57 57 55 53 49
206 214 222 227 219 223 239 247 245 232 228 232 237 241 240 240 239 238 239 233 230 245 261 239 219 205 214 234 225 222 226 219 215 219 228 233 225 222 224 237 265 306 360 25 18 13 128 268 317 325 291 225 204 210 215 217 217 218 223 226 227 214 185 160 149 146 139 133 124 113 95 87 79 74 68 62 59 56 54 49 49 52 55 53 47
211 220 221 221 209 213 228 236 237 234 233 230 234 240 239 238 237 240 238 241 231 230 259 235 219 212 206 232 227 216 228 224 215 212 220 230 223 223 226 226 245 285 7 30 29 22 143 195 318 331 324 310 217 211 215 215 216 219 219 215 224 231 224 204 177 178 170 163 159 156 141 123 95 79 71 66 61 55 52 47 43 42 46 51 49
207 217 217 222 209 201 207 215 223 225 230 227 227 232 239 240 237 237 232 242 234 223 253 234 219 221 215 244 246 214 214 218 217 209 210 218 217 223 218 213 223 231 10 37 39 24 59 151 327 342 344 350 326 199 204 210 213 225 232 211 215 224 224 239 200 189 188 189 187 181 179 169 148 112 84 69 59 52 47 42 39 37 35 39 45
200 206 210 217 208 201 200 206 214 217 221 224 228 229 232 235 235 234 229 239 238 230 243 234 230 241 240 248 252 250 229 209 201 207 212 206 209 213 197 199 203 208 216 86 34 12 30 49 21 7 27 38 58 171 182 190 208 224 212 141 166 174 189 206 175 177 193 202 209 204 200 193 183 170 132 86 63 45 36 34 33 32 28 27 32
201 199 205 209 204 206 202 200 211 218 221 224 230 229 225 229 231 230 232 240 236 230 227 224 228 238 258 237 227 295 285 197 177 197 202 179 192 200 192 201 197 204 228 229 221 100 73 64 73 68 85 93 111 145 144 118 108 103 104 108 110 108 107 102 111 134 177 198 217 220 218 214 204 198 196 180 98 53 26 22 17 21 22 20 21
206 190 192 201 199 205 203 200 213 221 222 226 227 225 221 226 230 227 234 237 228 228 221 232 234 226 262 243 237 313 326 189 65 106 175 174 180 181 182 205 203 210 236 250 231 119 76 72 84 84 91 96 112 127 132 114 94 89 99 103 94 82 76 66 66 79 98 117 163 226 234 233 227 222 218 229 232 214 347 356 351 359 8 10 13
187 173 178 192 190 193 200 202 212 216 217 221 220 219 219 222 227 221 226 227 219 230 230 230 230 223 251 245 250 293 269 250 24 67 149 175 180 171 167 184 205 232 257 255 249 249 328 89 97 96 97 88 99 114 128 125 109 103 103 99 88 75 72 68 64 68 68 53 40 27 340 271 258 256 247 246 254 264 283 297 314 327 347 360 7
114 102 134 174 183 194 209 210 211 212 210 210 209 211 214 218 226 223 222 223 219 235 240 227 223 226 231 225 236 263 257 236 62 73 139 162 164 167 164 169 204 245 259 242 233 235 250 190 113 95 105 101 105 111 120 122 118 113 103 90 83 75 78 76 71 71 66 53 35 24 20 10 339 303 278 268 266 274 287 298 308 309 323 343 356
78 77 88 125 176 188 213 217 210 207 204 200 198 200 210 215 224 232 233 232 230 243 249 226 213 214 214 217 224 252 268 247 206 277 148 138 139 162 176 187 199 218 238 235 222 214 235 247 264 268 117 107 106 99 109 118 121 118 89 69 66 62 71 73 70 67 60 55 49 41 34 26 15 4 346 319 299 291 291 297 305 307 310 322 332
91 86 86 89 82 99 174 209 203 199 201 198 194 200 215 216 222 238 249 243 228 237 246 229 212 208 214 228 231 246 258 239 228 246 208 123 159 176 188 192 201 215 208 212 217 213 230 246 249 241 178 129 132 122 107 108 125 141 122 86 67 6 18 16 24 38 41 44 47 46 40 32 23 15 9 357 336 316 307 304 309 312 314 317 318
123 119 101 110 124 109 130 156 163 185 203 197 196 201 203 211 216 211 220 229 219 220 233 235 226 216 219 237 237 247 251 225 220 226 158 76 149 148 161 175 183 192 182 172 201 220 232 238 223 221 209 189 186 158 126 117 140 144 177 216 232 243 252 271 285 302 334 360 19 32 30 24 23 21 17 9 355 334 322 317 317 317 316 316 311
121 118 111 110 127 119 117 105 104 136 152 174 193 199 189 191 186 172 182 192 191 197 218 231 229 222 223 241 234 232 241 232 213 195 113 67 83 112 136 156 152 163 180 178 176 192 207 211 203 215 222 209 210 244 260 256 246 219 206 217 223 241 257 264 272 286 301 319 332 353 2 360 9 16 11 3 356 345 337 330 328 326 320 315 310
78 88 125 134 115 100 105 105 91 92 99 117 167 180 180 175 166 168 172 164 160 173 197 186 176 197 201 224 232 201 203 220 180 134 99 86 63 92 116 132 135 143 158 152 147 169 192 200 209 229 244 244 259 269 265 251 240 239 239 249 266 265 269 270 270 270 270 294 332 334 327 325 338 353 352 348 346 346 347 343 339 334 326 321 317
101 112 177 176 131 109 89 97 94 91 87 86 95 108 118 141 161 170 164 148 146 155 168 179 182 193 194 201 216 183 185 224 163 110 79 87 78 86 103 116 128 129 132 138 139 152 179 190 198 217 236 250 233 228 235 235 233 240 245 251 261 265 267 279 280 270 276 328 339 318 311 315 316 314 320 331 337 339 341 338 333 329 328 330 329
127 148 158 137 146 124 79 50 100 114 100 88 91 109 111 98 98 121 148 160 155 151 157 180 195 209 216 210 183 152 130 153 139 104 76 87 83 81 91 99 110 118 126 132 128 137 162 170 153 148 145 160 187 198 211 218 218 221 220 225 240 258 274 297 296 284 308 340 311 293 300 315 301 287 295 304 308 310 309 310 312 318 326 331 336
135 150 134 129 136 123 103 44 53 89 97 105 103 97 89 85 98 103 115 142 149 137 123 140 203 212 224 229 173 129 133 127 126 113 89 82 76 80 87 90 102 114 118 116 105 108 131 135 132 130 130 147 170 183 195 199 197 191 191 206 228 252 271 296 305 306 341 339 306 304 304 294 277 273 278 277 274 275 280 287 292 299 311 322 332
111 94 119 125 119 114 114 90 54 58 64 93 107 103 97 101 109 98 97 113 120 123 117 115 149 154 199 223 215 166 147 119 109 122 106 92 81 80 89 91 101 109 109 109 100 92 100 113 120 117 112 121 138 154 170 179 181 177 181 195 217 232 231 209 17 30 31 18 348 329 298 275 267 266 267 266 263 261 263 270 278 289 298 303 313
88 75 79 95 104 113 124 117 96 80 62 62 106 124 127 121 116 109 103 104 102 112 113 114 130 114 108 161 180 197 179 153 139 136 119 111 100 84 87 93 101 106 105 102 97 93 96 105 112 110 106 110 114 119 132 155 168 164 153 139 133 127 87 57 26 36 53 59 58 50 325 266 262 262 265 266 263 260 262 266 269 278 287 292 295
121 116 92 74 68 91 120 122 116 118 106 90 107 119 115 110 113 112 102 100 102 106 112 113 118 115 114 121 124 147 163 169 155 131 112 118 115 99 94 96 99 99 98 100 97 92 95 105 112 111 110 110 109 115 118 123 130 130 123 108 95 84 63 54 58 70 79 79 73 68 66 53 17 319 293 282 276 271 268 269 269 269 274 282 286
151 144 129 114 84 74 108 125 127 125 114 101 94 99 109 110 112 111 105 106 107 104 108 111 108 112 117 109 92 101 121 120 130 133 121 122 122 112 102 98 100 99 94 92 86 80 87 96 101 105 113 115 115 118 117 117 117 111 106 98 87 82 83 85 86 87 87 83 75 68 63 57 48 38 22 352 322 297 270 263 265 265 263 265 271
185 171 154 142 140 137 121 120 126 123 114 106 101 101 111 117 120 121 117 113 112 109 103 98 96 99 99 90 79 80 96 104 108 120 123 122 121 119 113 103 101 101 99 94 82 79 85 76 74 90 103 108 112 113 111 113 114 106 98 93 85 80 83 89 90 87 82 78 73 60 48 41 35 29 25 18 13 9 339 284 275 273 269 270 274
209 186 168 155 155 155 139 128 132 131 124 115 107 108 111 118 124 123 119 112 112 116 110 101 94 89 88 83 77 78 82 85 93 110 121 122 119 120 121 116 111 111 113 113 100 90 86 64 53 72 92 97 99 99 101 100 97 93 85 82 80 77 77 78 76 69 59 48 34 16 3 1 1 1 2 3 9 20 31 24 339 315 311 312 311
201 163 153 157 154 143 140 140 139 139 132 116 101 104 111 116 120 121 122 117 115 118 116 112 105 99 100 96 92 90 84 77 83 101 110 113 117 123 128 127 123 123 122 121 113 100 91 75 64 62 72 84 89 85 85 83 80 77 72 69 68 67 66 60 52 40 26 11 360 353 347 345 344 341 340 333 331 340 3 17 7 355 350 348 346
199 166 160 169 163 148 144 137 132 137 135 125 118 115 116 118 118 117 116 110 114 119 119 119 112 105 104 105 105 104 102 99 97 102 106 112 120 127 135 137 134 131 125 119 115 108 101 103 118 99 69 78 82 79 75 67 65 66 64 64 61 60 57 51 45 36 26 21 17 14 10 6 2 357 350 338 322 309 309 314 313 314 321 336 344
199 180 178 177 166 157 151 140 131 128 127 130 133 129 121 115 109 105 104 100 102 108 113 116 112 103 97 101 110 112 114 117 115 115 113 113 121 124 133 144 141 132 123 116 115 114 114 121 130 12 49 69 69 77 80 68 64 67 67 66 60 56 54 49 45 41 33 28 25 21 19 16 12 10 7 360 348 327 310 299 291 290 290 293 295
205 194 188 175 164 163 161 153 141 131 128 132 133 130 123 119 115 112 111 109 107 107 111 114 111 106 101 101 109 113 121 127 122 119 114 116 135 117 93 126 132 125 124 120 118 121 124 126 116 60 24 40 48 61 67 60 63 72 68 58 51 45 43 39 35 31 26 20 16 13 9 7 5 3 1 359 355 346 336 322 306 295 290 287 287
209 197 188 177 176 178 171 155 141 127 122 120 120 120 118 115 115 113 111 112 112 110 110 114 112 108 105 104 104 101 107 124 129 124 117 119 138 102 71 93 109 118 128 124 118 124 123 115 118 114 33 28 43 55 52 37 34 47 51 42 33 32 27 22 21 18 17 12 6 3 360 357 354 351 349 346 343 339 334 328 320 310 300 294 291
205 195 188 184 185 172 153 141 133 122 115 115 114 110 109 109 107 105 103 102 103 101 98 100 101 100 98 96 94 86 81 105 122 122 115 108 113 104 91 98 83 97 135 132 120 127 130 118 115 112 83 67 58 54 49 31 18 27 43 34 18 20 17 15 16 14 13 9 4 0 356 351 347 344 342 338 335 332 328 323 317 311 306 302 298
199 194 187 186 178 151 137 133 129 125 121 117 111 106 105 105 104 101 100 97 98 97 92 89 87 90 95 94 93 86 76 86 100 107 110 103 101 101 101 107 83 82 136 143 128 132 145 142 137 131 123 115 57 26 27 30 18 5 24 30 16 14 19 20 20 20 19 12 4 358 351 346 341 337 335 332 330 327 324 321 317 314 310 307 304
196 190 182 179 164 147 139 132 128 127 125 120 116 115 111 108 108 103 96 93 96 95 92 93 91 84 88 95 99 96 92 89 82 84 93 91 91 86 73 99 89 76 112 140 128 134 144 131 132 139 138 121 51 30 1 5 18 12 19 22 10 4 7 10 10 11 10 5 1 357 350 342 337 333 329 326 323 321 318 316 315 312 311 310 308
191 180 175 174 162 153 148 142 140 136 133 130 126 125 118 116 118 108 97 90 87 95 99 102 102 95 89 92 100 102 103 98 86 77 73 67 82 87 75 89 94 81 84 105 112 125 129 122 131 133 120 122 120 33 342 355 18 22 12 8 5 360 353 355 359 357 355 352 350 350 347 343 340 336 330 324 319 316 313 311 310 308 307 306 304
183 174 177 176 165 161 159 156 155 149 148 148 145 143 132 126 130 120 117 111 81 99 102 69 68 101 106 80 89 104 112 111 110 112 101 86 97 112 104 102 106 99 89 77 89 103 108 124 148 138 110 126 172 256 338 14 32 40 356 346 3 1 341 341 346 344 344 343 341 343 345 344 342 339 335 330 325 320 316 312 309 307 306 304 302
175 169 189 188 169 168 171 171 172 169 171 172 170 169 160 162 188 192 199 232 312 302 23 45 354 313 310 308 317 112 142 143 140 144 131 103 90 112 117 103 122 125 104 86 93 101 92 97 136 150 129 120 132 35 351 10 24 36 56 7 26 28 339 329 334 334 335 336 335 335 337 339 340 340 337 333 329 325 321 317 314 311 309 307 305
173 171 199 197 174 175 182 184 188 190 190 193 197 204 210 229 249 262 269 274 285 278 228 116 242 290 315 319 307 320 207 201 170 160 153 123 97 106 122 94 106 129 118 107 98 98 105 116 131 140 112 98 116 117 338 4 8 15 35 42 65 69 13 331 332 329 327 332 333 331 330 331 334 338 341 339 335 331 325 320 316 314 312 310 308
175 177 205 201 183 188 192 191 200 209 209 212 219 225 236 253 263 268 267 266 270 260 238 202 212 250 293 332 317 319 279 225 163 156 174 162 154 159 145 140 151 150 141 136 122 105 126 141 155 146 124 126 127 279 291 326 329 39 34 353 262 250 275 308 327 326 326 332 333 327 323 324 328 335 339 338 337 336 331 326 321 318 317 317 314
180 182 202 201 191 199 202 197 205 217 221 227 234 237 249 256 255 261 260 255 260 255 252 252 239 249 262 229 225 259 271 237 183 186 206 201 185 185 180 173 174 168 156 144 129 133 138 116 59 79 152 194 251 240 294 339 4 180 256 284 273 272 282 308 328 332 332 334 330 323 318 318 322 328 332 334 335 334 332 330 327 325 326 327 324
191 193 202 201 196 201 207 208 214 225 229 232 238 240 250 252 248 253 251 247 255 254 256 267 265 267 272 254 233 240 253 259 236 225 244 255 222 211 216 214 210 222 225 183 155 160 161 131 97 196 231 274 274 236 263 312 321 237 256 261 272 286 296 316 330 334 333 329 323 316 308 307 313 319 325 329 330 329 329 328 328 326 326 328 327
203 207 208 206 207 206 206 210 219 227 225 224 224 225 234 244 249 250 248 250 252 250 253 258 254 263 271 260 243 244 252 259 256 253 260 263 244 223 224 228 236 256 267 238 192 177 169 174 273 278 277 294 286 252 244 263 258 257 265 272 282 291 305 322 330 331 324 320 318 310 302 304 311 316 320 324 326 327 326 324 322 321 321 323 324
204 211 211 209 215 217 214 216 223 226 225 223 223 225 230 243 253 251 247 248 243 238 237 234 238 252 254 244 238 239 244 250 253 255 257 254 246 239 238 242 248 260 266 235 194 183 188 226 286 283 263 282 286 258 240 259 277 279 280 285 287 293 312 324 325 321 317 318 317 311 308 310 311 314 319 322 324 323 316 313 313 314 317 320 321
204 208 211 211 215 220 222 224 225 228 230 227 228 233 232 233 242 246 247 249 250 252 253 253 263 267 254 247 248 239 233 242 253 255 253 249 248 247 250 255 260 263 255 228 204 199 206 219 267 274 255 247 270 278 268 269 278 283 283 284 284 294 312 317 314 314 317 318 316 313 313 314 313 314 318 320 321 317 311 311 312 312 314 315 315
214 212 214 215 217 222 226 228 227 232 238 237 235 239 237 233 236 243 251 257 264 269 269 271 279 274 255 249 251 240 230 239 253 255 254 250 247 249 254 260 265 265 251 239 236 232 225 216 211 229 240 241 248 265 275 270 271 277 280 281 284 293 305 309 310 313 316 317 317 315 314 315 316 317 319 321 322 317 310 307 305 305 307 308 310
228 224 223 224 227 228 231 235 234 235 242 247 247 245 246 248 248 248 252 258 264 271 273 275 276 270 255 245 239 231 225 232 247 253 251 247 245 246 250 255 260 259 252 251 257 259 250 240 234 230 236 246 252 258 267 271 274 278 282 285 288 296 303 308 311 313 314 317 318 315 314 318 323 323 323 322 317 309 305 303 303 304 304 305 306
236 234 232 235 237 237 238 242 244 244 244 248 253 254 255 259 258 254 252 256 263 267 269 271 270 262 248 232 223 223 221 227 242 245 240 237 237 237 240 245 250 252 252 255 257 256 254 252 250 247 246 250 256 261 269 274 277 280 284 288 292 299 304 308 310 312 314 318 320 318 318 322 327 324 320 317 312 308 307 304 304 304 302 300 301
246 243 239 241 243 242 242 243 246 250 250 250 254 258 258 259 261 259 255 257 263 262 258 260 258 247 234 222 218 219 216 223 238 239 230 225 225 228 232 235 241 246 248 252 254 252 249 247 250 254 256 260 267 273 278 280 281 285 289 292 296 301 304 306 308 311 315 320 323 319 315 317 319 313 307 306 306 305 304 301 299 299 297 297 300
250 249 243 245 248 246 245 242 243 251 256 257 258 258 258 258 259 258 256 257 257 250 245 242 228 216 214 215 215 212 208 218 230 232 227 215 215 226 233 234 238 241 244 249 254 255 253 250 252 260 266 270 274 278 281 283 286 289 292 296 301 304 305 306 307 309 312 315 316 309 303 303 303 299 296 297 299 301 301 299 300 302 303 303 306
253 251 246 250 252 249 247 246 249 255 260 263 262 260 259 259 258 255 252 247 234 221 215 201 189 187 192 196 199 206 218 225 224 224 229 228 229 240 241 240 244 243 242 248 250 248 250 251 254 261 268 271 274 279 284 287 289 291 295 299 302 304 305 305 305 305 304 303 299 292 291 294 298 299 297 295 294 294 294 295 300 304 304 303 304
259 259 256 256 251 242 241 245 250 255 258 261 262 261 258 255 252 247 235 215 199 199 192 183 187 194 192 188 191 202 216 227 229 229 238 248 255 257 247 240 248 252 247 243 241 242 249 255 259 263 268 272 278 284 288 289 292 296 299 302 303 306 309 311 310 305 299 299 299 294 292 294 296 296 293 291 290 292 296 303 307 308 308 307 305
258 257 254 252 247 239 237 241 244 247 251 254 256 257 253 244 235 224 206 189 184 188 186 189 197 201 197 190 189 196 207 220 230 234 241 247 250 255 253 247 257 270 265 250 246 249 255 260 264 267 271 276 281 285 289 292 295 300 304 307 310 314 317 319 317 308 303 310 312 304 298 296 294 293 294 294 294 295 300 306 306 303 306 308 304
259 257 249 242 240 238 236 240 243 243 245 247 244 240 235 225 212 202 195 189 192 193 193 203 207 202 196 192 191 198 208 215 224 231 234 235 232 236 250 260 273 284 277 264 258 260 264 270 274 276 278 280 285 290 293 298 304 309 314 317 319 319 318 321 321 312 309 314 310 302 301 300 298 297 299 300 299 297 297 299 297 295 296 298 298